Regional Weather Roundup
Issued by NWS Newport/Morehead, NC

Current Version | Previous Version | Graphics & Text | Print | Product List | Glossary On
Versions: 1 2 3 4 5 6 7 8 9 10 11 12 13 14 15 16 17 18 19 20 21 22 23 24 25 26 27 28 29 30 31 32 33 34 35 36 37 38 39 40 41 42 43 44 45 46 47 48 49 50
000 ASUS42 KMHX 292012 RWRMHX WEATHER ROUNDUP FOR EASTERN NORTH CAROLINA NATIONAL WEATHER SERVICE NEWPORT/MOREHEAD CITY NC 400 PM EDT SUN MAR 29 2015 NOTE: "FAIR" INDICATES FEW OR NO CLOUDS BELOW 12,000 FEET WITH NO SIGNIFICANT WEATHER AND/OR OBSTRUCTIONS TO VISIBILITY NCZ015>017-031-032-045>047-102-103-292100- NORTH COAST CITY SKY/WX TMP DP RH WIND PRES REMARKS EDENTON SUNNY 46 12 25 NW7 30.34F ELIZABETH CITY SUNNY 45 11 25 NW9 30.33F KITTY HAWK CLEAR 40 19 42 NE6 30.33F MANTEO SUNNY 41 15 35 N6 30.34F $$ NCZ045>047-081-094-103-104-292100- CENTRAL COAST CITY SKY/WX TMP DP RH WIND PRES REMARKS FRISCO SUNNY 44 12 27 N8 30.34F SWANQUARTER N/A 48 N/A N/A NW9 30.30S $$ NCZ095-097-098-100-101-292100- SOUTHERN COAST CITY SKY/WX TMP DP RH WIND PRES REMARKS BEAUFORT SUNNY 48 17 29 W6 30.33F CEDAR ISLAND N/A 45 N/A N/A NW7G14 30.39S JACKSONVILLE SUNNY 49 12 22 NW9 30.34F PINEY ISLAND CLEAR N/A N/A N/A N9 30.34F WILMINGTON SUNNY 51 13 21 CALM 30.35F $$ NCZ011>013-027>030-043-044-078>080-089-090>093-098-292100- COASTAL PLAIN CITY SKY/WX TMP DP RH WIND PRES REMARKS AHOSKIE SUNNY 46 13 26 W5 30.34F CLINTON SUNNY 49 16 27 W6 30.37S ELIZABETHTOWN SUNNY 50 10 19 W8 30.37R GOLDSBORO SUNNY 49 15 25 N6 30.33F GREENVILLE SUNNY 48 12 23 N5 30.35S HAVELOCK SUNNY 49 11 21 NW10 30.34F KENANSVILLE SUNNY 48 10 21 NW6 30.37S KINSTON SUNNY 48 10 21 N7 30.35F NEW BERN SUNNY 48 12 23 N6 30.35F RICHLANDS SUNNY 48 12 23 NW8 30.35S ROCKY MOUNT SUNNY 49 13 23 VRB3 30.34F WASHINGTON SUNNY 46 12 25 N12 30.34F WHITEVILLE SUNNY 51 12 21 CALM 30.37S $$ AMZ130-135-150-152-154-156-158-170-250-252-270-ANZ085-086-088-633-658-670-292100- MARINE OBSERVATIONS STATION/POSITION TIME TEMP WIND PRES WAVE SWELL AIR SEA DIR/SP/G HT/PER HT/PER (UTC) (F) (DEG/KT/KT) (MB) (FT/S) (FT/S) CHESAPEAKE LIGHT 1900 36 300/ 11/ 12 1028.2 64 E VA BEACH 1950 36 54 330/ 19/ 25 1026.1 5/ 6 2/ 8 DUCK 1900 20/ 11/ 13 N/A 2 E DUCK 1911 42 N/A 4/ 6 10 NE DUCK NOT AVBL OREGON INLET 1900 37 44 10/ 11/ 14 1028.0 HATTERAS CG 1900 40 48 340/ 12/ 15 1028.3 CAPE LOOKOUT 2000 45 320/ 6/ 7 1027.0 BEAUFORT LAB 1900 45 53 330/ 4/ 12 1027.0 27 SE WRIGHTSVLE NOT AVBL 5 SE WRIGHTSVLE 1900 44 56 150/ 6/ 6 1028.0 225 S CAPE HAT 1950 53 68 320/ 17/ 23 1025.6 8/ 8 3/10 41 SE CHARLESTON 1950 47 68 10/ 12/ 16 1028.8 4/ 6 3/ 6 $$

USA.gov is the U.S. government's official web portal to all federal, state and local government web resources and services.